Regional Weather Roundup
Issued by NWS Bismarck, ND

Home | Current Version | Previous Version | Text Only | Print | Product List | Glossary On
Versions: 1 2 3 4 5 6 7 8 9 10 11 12 13 14 15 16 17 18 19 20 21 22 23 24 25 26 27 28 29 30 31 32 33 34 35 36 37 38 39 40 41 42 43 44 45 46 47 48 49 50
000
ASUS43 KBIS 190920
RWRBIS

NWR BROADCAST TEXT
NATIONAL WEATHER SERVICE BISMARCK ND
300 AM CST FRI DEC 19 2014

NOTE: "FAIR" INDICATES FEW OR NO CLOUDS BELOW 12,000 FEET WITH NO
SIGNIFICANT WEATHER AND/OR OBSTRUCTIONS TO VISIBILITY.


CITY           SKY/WX    TMP DP  RH WIND       PRES   REMARKS
WILLISTON      FOG       25  24  96 CALM      29.92S VSB 1/4
MINOT          CLOUDY    26  24  92 SE3       29.95R FOG
MINOT AFB      FRZ DRZL  25  25 100 SE6       29.95R FOG     WCI  18
BISMARCK       CLEAR     18  15  88 SE5       29.98S WCI  11
DICKINSON      CLOUDY    30  25  81 SW9       29.89S
GARRISON         N/A     24  23  96 SE6       29.93S WCI  17
HETTINGER ARPT MOCLDY    26  22  84 CALM      29.95R
JAMESTOWN      CLOUDY    25  24  96 S8        30.03S FOG     WCI  16
BEACH          CLOUDY    32  27  80 SW12      29.92R
CARRINGTON     CLOUDY    25  25 100 MISG      30.01S FOG
CROSBY         CLOUDY    27  27 100 W5        29.93R FOG
HARVEY         CLOUDY    27  27 100 S8        29.98S FOG     WCI  18
HAZEN          CLOUDY    18  14  86 CALM      29.96R
LINTON         FAIR      19  19 100 SE13      29.99F WCI   7
MANDAN         FAIR      21  19  93 S9        29.97R WCI  11
OAKES            N/A     27  27 100 S9        30.08S FOG     WCI  17
RUGBY          CLOUDY    25  25 100 SE6       29.98S FOG     WCI  18
STANLEY        FOG       27  27 100 SW5       29.91S VSB 1/2
TIOGA          FOG       27  27 100 CALM      29.93S VSB 1
WATFORD CITY   FAIR      16  16 100 CALM      29.90S
$$

CITY           SKY/WX    TMP DP  RH WIND       PRES   REMARKS
GRAND FORKS    CLOUDY    21  18  88 S14       30.11S WCI   8
GRAND FORKS AF CLOUDY    21  21  99 S13       30.10S WCI   9
DEVILS LAKE    CLOUDY    25  18  74 S10       29.99F WCI  15
FARGO          CLOUDY    23  19  85 SE14      30.14S WCI  11
CANDO          CLOUDY    23  23 100 S7        30.01R FOG     WCI  15
CAVALIER       CLOUDY    19  19 100 S7        30.09S FOG     WCI  10
GWINNER        CLOUDY    30  30 100 MISG      30.10F
LANGDON        FOG       23  19  86 S14       30.01S VSB 1   WCI  11
ROLLA          CLOUDY    23  23 100 S6        29.98S FOG     WCI  16
WALHALLA         N/A     19  19 100 SE9       30.08S FOG     WCI   9
$$

CITY           SKY/WX    TMP DP  RH WIND       PRES   REMARKS
ABERDEEN       CLOUDY    28  24  85 S12       30.09F WCI  18
MOBRIDGE       CLEAR     22  19  89 SE8       29.99R WCI  12
BUFFALO          N/A     28  21  75 W10       29.88S WCI  19
RAPID CITY     CLEAR     24  16  71 NW3       29.99R
GLASGOW        FOG       20  17  88 CALM      29.91S VSB 1/4
SIDNEY         CLOUDY    23  21  93 CALM      29.95R
WOLF POINT     CLOUDY    21  17  84 CALM      29.93S
GLENDIVE       CLOUDY    28  25  86 S9        29.93S WCI  20
MILES CITY     CLEAR     24  21  88 S5        29.95S WCI  18
BAKER          PTCLDY    30  23  75 SW14      29.93S WCI  19
$$

CITY           SKY/WX    TMP DP  RH WIND       PRES   REMARKS
BILLINGS       PTCLDY    32  19  58 W21G28    29.95F WCI  20
GREAT FALLS    CLEAR     31  25  78 SW13      29.88F
REGINA         FOG       23  23 100 W3        29.90S VSB 1/4
ESTEVAN        LGT SNOW  25  23  93 W7        29.92R FOG     WCI  17
$$



USA.gov is the U.S. government's official web portal to all federal, state and local government web resources and services.